Retour au catalogue

COSMOS 1275 DEB

ActifPO
NORAD 39939·DEBRIS·🇷🇺 Russia

Lancé Jun 4, 1981 depuis Plesetsk Cosmodrome

Loading…

Prochains Passages (prochaines 24 heures)

TLE

VieillissantSource: Space-Track

Époque: Sep 8, 2026, 02:46 UTC

1 39939U 81053MZ  26251.11562150  .00000434  00000-0  40587-3 0  9995
2 39939  82.8191  29.3027 0069098 283.4134  75.9328 13.78724220616175

Suivez COSMOS 1275 DEB en temps réel avec AllMySat

Download on the App Store